Weather Roundup
Issued by NWS Chicago, IL

Home | Current Version | Previous Version | Graphics & Text | Print | Product List | Glossary On
Versions: 1 2 3 4 5 6 7 8 9 10 11 12 13 14 15 16 17 18 19 20 21 22 23 24 25 26 27 28 29 30 31 32 33 34 35 36 37 38 39 40 41 42 43 44 45 46 47 48 49 50
000
NZUS59 KLOT 171008
HRRLOT

CHICAGO AREA WEATHER ROUNDUP
NATIONAL WEATHER SERVICE CHICAGO/ROMEOVILLE IL
400 AM CST WED JAN 17 2018

NOTE: "FAIR" INDICATES FEW OR NO CLOUDS BELOW 12,000 FEET WITH NO
SIGNIFICANT WEATHER AND/OR OBSTRUCTIONS TO VISIBILITY.

* THESE STATIONS ARE NOT UNDER NWS QUALITY CONTROL. THEY ALSO MAY NOT
  REPORT WEATHER SUCH AS PRECIPITATION OR FOG.

ILZ005-006-012>014-019>023-171100-
NORTHEAST ILLINOIS

CITY           SKY/WX    TMP DP  RH WIND       PRES   REMARKS
OHARE            N/A      8   3  80 W8        30.52F WCI  -4
MIDWAY           N/A      9   5  84 W6        30.53F WCI  -1
AURORA           N/A     -1  -4  87 W6        30.54F WCI -13
LANSING*         N/A      5   3  92 W5        30.54S WCI  -4
JOLIET*          N/A      3   0  87 CALM      30.56F
WAUKEGAN         N/A      8   2  76 W5        30.49F WCI   0
DUPAGE AIRPORT   N/A      1  -1  91 W3        30.52F
WHEELING         N/A      8   4  83 W5        30.54S WCI   0
KANKAKEE*        N/A      1  -3  83 W9        30.57S WCI -14
MORRIS*          N/A      0  -4  84 SW6       30.56S WCI -12
LEWIS AIRPORT*   N/A      3   0  88 W5        30.54F WCI  -7
$$

WIZ051-052-058>065-066-070>072-171100-
SOUTHEAST WISCONSIN

CITY           SKY/WX    TMP DP  RH WIND       PRES   REMARKS
MILWAUKEE        N/A     10   6  84 W6        30.47F WCI   0
KENOSHA*         N/A      3  -1  83 SW8       30.48F WCI -10
RACINE*          N/A      7   4  87 W7        30.50F WCI  -5
BURLINGTON       N/A      1  -3  83 SW5       30.49F WCI  -9
WAUKESHA         N/A      3   1  92 SW6       30.47S WCI  -8
WEST BEND        N/A      5   3  92 W7        30.44F WCI  -7
$$

INZ001>003-010>013-019-020-171100-
NORTHWEST INDIANA

CITY           SKY/WX    TMP DP  RH WIND       PRES   REMARKS
GARY*            N/A    N/A N/A N/A W7          N/A
MICHIGAN CITY* NOT AVBL
RENSSELAER*    NOT AVBL
VALPARAISO       N/A      7   4  87 W6        30.51S WCI  -3
$$

LMZ740>746-171100-
SOUTHERN LAKE MICHIGAN

STATION/POSITION TIME  SKY/WX   TEMP WIND        PRES    VSBY
                                AIR  DIR/SP/G
                 (UTC)          (F)  (DEG/KT/KT) (MB)    (MI)
HARRISON CRIB    0940            15  280/ 14/ 17   N/A
BURNHAM HARBOR   1000            13  280/  8/ 14   N/A
CALUMET HARBOR   0942            11  260/  5/  9 1032.9R
BURNS HARBOR     0940            14  230/  8/ 10 1033.9R
MICHIGAN CITY    0940            23  280/ 19/ 21   N/A
$$

ABBREVIATIONS USED IN REMARKS
   TC - TEMPERATURE IN CELSIUS
  WCI - WIND CHILL INDEX
   HX - HEAT INDEX
  VSB - VISIBILITY
$$



USA.gov is the U.S. government's official web portal to all federal, state and local government web resources and services.